Time,TemperatureF,DewpointF,PressureIn,WindDirection,WindDirectionDegrees,WindSpeedMPH,WindSpeedGustMPH,Humidity,HourlyPrecipIn,Conditions,Clouds,dailyrainin,SoftwareType,DateUTC
2013-02-15 00:01:00,64.8,59.5,30.05,North,10,27.0,38.0,83,0.00,,,0.00,Weather View 32 v70,2013-02-15 10:01:00,
2013-02-15 00:06:00,64.6,59.3,30.07,North,5,21.0,38.0,83,0.00,,,0.00,Weather View 32 v70,2013-02-15 10:06:00,
2013-02-15 00:11:00,64.7,58.7,30.07,North,358,25.0,38.0,81,0.00,,,0.00,Weather View 32 v70,2013-02-15 10:11:00,
2013-02-15 00:16:00,64.8,58.8,30.06,NNE,22,21.0,38.0,81,0.00,,,0.00,Weather View 32 v70,2013-02-15 10:16:00,
2013-02-15 00:21:00,65.0,59.0,30.07,NNE,29,19.0,38.0,81,0.00,,,0.00,Weather View 32 v70,2013-02-15 10:21:00,
2013-02-15 00:26:00,65.1,59.5,30.06,North,1,23.0,38.0,82,0.00,,,0.00,Weather View 32 v70,2013-02-15 10:26:00,
2013-02-15 00:31:00,65.3,59.6,30.07,North,1,25.0,38.0,82,0.00,,,0.00,Weather View 32 v70,2013-02-15 10:31:00,
2013-02-15 00:36:00,65.2,59.5,30.06,NNW,337,25.0,38.0,82,0.00,,,0.00,Weather View 32 v70,2013-02-15 10:36:00,
2013-02-15 00:41:00,65.2,59.2,30.07,North,356,22.0,38.0,81,0.00,,,0.00,Weather View 32 v70,2013-02-15 10:41:00,
2013-02-15 00:46:00,65.3,59.3,30.07,North,356,20.0,38.0,81,0.00,,,0.00,Weather View 32 v70,2013-02-15 10:46:00,
2013-02-15 00:52:00,65.3,59.3,30.06,North,354,29.0,38.0,81,0.00,,,0.00,Weather View 32 v70,2013-02-15 10:52:00,
2013-02-15 00:57:00,65.3,59.0,30.07,NNW,345,24.0,37.0,80,0.00,,,0.00,Weather View 32 v70,2013-02-15 10:57:00,
2013-02-15 01:02:00,65.3,59.0,30.06,North,355,24.0,36.0,80,0.00,,,0.00,Weather View 32 v70,2013-02-15 11:02:00,
2013-02-15 01:07:00,65.3,59.0,30.07,NNW,343,16.0,36.0,80,0.00,,,0.00,Weather View 32 v70,2013-02-15 11:07:00,
2013-02-15 01:12:00,65.3,59.0,30.06,NNE,12,20.0,36.0,80,0.00,,,0.00,Weather View 32 v70,2013-02-15 11:12:00,
2013-02-15 01:17:00,65.4,59.0,30.07,NW,313,16.0,36.0,80,0.00,,,0.00,Weather View 32 v70,2013-02-15 11:17:00,
2013-02-15 01:22:00,65.4,58.7,30.05,NNW,332,22.0,35.0,79,0.00,,,0.00,Weather View 32 v70,2013-02-15 11:22:00,
2013-02-15 01:27:00,65.6,58.2,30.05,North,357,23.0,36.0,77,0.00,,,0.00,Weather View 32 v70,2013-02-15 11:27:00,
2013-02-15 01:32:00,65.6,58.2,30.05,North,1,27.0,36.0,77,0.00,,,0.00,Weather View 32 v70,2013-02-15 11:32:00,
2013-02-15 01:37:00,65.7,57.9,30.04,North,8,21.0,36.0,76,0.00,,,0.00,Weather View 32 v70,2013-02-15 11:37:00,
2013-02-15 01:42:00,65.7,57.9,30.03,North,352,34.0,36.0,76,0.00,,,0.00,Weather View 32 v70,2013-02-15 11:42:00,
2013-02-15 01:47:00,65.7,57.5,30.04,North,350,29.0,36.0,75,0.00,,,0.00,Weather View 32 v70,2013-02-15 11:47:00,
2013-02-15 01:52:00,65.6,57.8,30.04,NNE,20,30.0,36.0,76,0.00,,,0.00,Weather View 32 v70,2013-02-15 11:52:00,
2013-02-15 01:57:00,65.7,57.9,30.05,NNW,334,22.0,36.0,76,0.00,,,0.00,Weather View 32 v70,2013-02-15 11:57:00,
2013-02-15 02:02:00,65.6,58.2,30.06,North,352,25.0,36.0,77,0.00,,,0.00,Weather View 32 v70,2013-02-15 12:02:00,
2013-02-15 02:07:00,65.5,58.1,30.04,North,359,28.0,36.0,77,0.00,,,0.00,Weather View 32 v70,2013-02-15 12:07:00,
2013-02-15 02:12:00,65.6,58.2,30.04,NNE,19,26.0,36.0,77,0.00,,,0.00,Weather View 32 v70,2013-02-15 12:12:00,
2013-02-15 02:17:00,65.4,58.3,30.05,North,353,30.0,36.0,78,0.00,,,0.00,Weather View 32 v70,2013-02-15 12:17:00,
2013-02-15 02:22:00,65.0,58.7,30.04,NNE,15,18.0,36.0,80,0.00,,,0.00,Weather View 32 v70,2013-02-15 12:22:00,
2013-02-15 02:27:00,64.8,58.8,30.05,North,356,25.0,36.0,81,0.00,,,0.00,Weather View 32 v70,2013-02-15 12:27:00,
2013-02-15 02:32:00,64.8,58.8,30.05,North,353,18.0,35.0,81,0.00,,,0.00,Weather View 32 v70,2013-02-15 12:32:00,
2013-02-15 02:37:00,64.8,58.8,30.05,North,355,26.0,35.0,81,0.00,,,0.00,Weather View 32 v70,2013-02-15 12:37:00,
2013-02-15 02:42:00,64.8,58.5,30.04,North,349,29.0,35.0,80,0.00,,,0.00,Weather View 32 v70,2013-02-15 12:42:00,
2013-02-15 02:47:00,64.9,58.2,30.04,North,349,32.0,35.0,79,0.00,,,0.00,Weather View 32 v70,2013-02-15 12:47:00,
2013-02-15 02:52:00,64.9,58.2,30.03,NNW,334,28.0,35.0,79,0.00,,,0.00,Weather View 32 v70,2013-02-15 12:52:00,
2013-02-15 02:57:00,65.0,58.0,30.03,NNW,341,34.0,37.0,78,0.00,,,0.00,Weather View 32 v70,2013-02-15 12:57:00,
2013-02-15 03:02:00,65.1,57.7,30.05,NW,316,22.0,37.0,77,0.00,,,0.00,Weather View 32 v70,2013-02-15 13:02:00,
2013-02-15 03:07:00,65.1,57.7,30.05,NNW,331,15.0,37.0,77,0.00,,,0.00,Weather View 32 v70,2013-02-15 13:07:00,
2013-02-15 03:12:00,65.2,57.4,30.04,North,1,26.0,37.0,76,0.00,,,0.00,Weather View 32 v70,2013-02-15 13:12:00,
2013-02-15 03:17:00,65.3,57.1,30.04,NNE,22,22.0,37.0,75,0.00,,,0.00,Weather View 32 v70,2013-02-15 13:17:00,
2013-02-15 03:23:00,65.4,57.2,30.04,North,355,29.0,37.0,75,0.00,,,0.00,Weather View 32 v70,2013-02-15 13:23:00,
2013-02-15 03:28:00,65.3,56.8,30.04,North,6,27.0,37.0,74,0.00,,,0.00,Weather View 32 v70,2013-02-15 13:28:00,
2013-02-15 03:33:00,65.4,56.5,30.03,North,4,19.0,37.0,73,0.00,,,0.00,Weather View 32 v70,2013-02-15 13:33:00,
2013-02-15 03:38:00,65.4,56.5,30.03,North,6,27.0,37.0,73,0.00,,,0.00,Weather View 32 v70,2013-02-15 13:38:00,
2013-02-15 03:43:00,65.4,56.5,30.03,NNE,18,16.0,37.0,73,0.00,,,0.00,Weather View 32 v70,2013-02-15 13:43:00,
2013-02-15 03:48:00,65.4,56.5,30.04,North,358,25.0,40.0,73,0.00,,,0.00,Weather View 32 v70,2013-02-15 13:48:00,
2013-02-15 03:53:00,65.3,56.8,30.04,NNE,21,23.0,40.0,74,0.00,,,0.00,Weather View 32 v70,2013-02-15 13:53:00,
2013-02-15 03:58:00,65.3,56.8,30.05,North,10,16.0,40.0,74,0.00,,,0.00,Weather View 32 v70,2013-02-15 13:58:00,
2013-02-15 04:03:00,65.3,56.8,30.04,NNE,28,16.0,40.0,74,0.00,,,0.00,Weather View 32 v70,2013-02-15 14:03:00,
2013-02-15 04:08:00,65.5,56.6,30.04,North,354,16.0,40.0,73,0.00,,,0.00,Weather View 32 v70,2013-02-15 14:08:00,
2013-02-15 04:13:00,65.5,57.0,30.05,North,355,14.0,40.0,74,0.00,,,0.00,Weather View 32 v70,2013-02-15 14:13:00,
2013-02-15 04:18:00,65.3,57.1,30.04,North,351,23.0,40.0,75,0.00,,,0.00,Weather View 32 v70,2013-02-15 14:18:00,
2013-02-15 04:23:00,65.2,57.1,30.04,North,355,20.0,40.0,75,0.00,,,0.00,Weather View 32 v70,2013-02-15 14:23:00,
2013-02-15 04:28:00,65.2,57.4,30.04,NW,318,25.0,40.0,76,0.00,,,0.00,Weather View 32 v70,2013-02-15 14:28:00,
2013-02-15 04:33:00,65.0,57.2,30.04,NNW,343,22.0,40.0,76,0.00,,,0.00,Weather View 32 v70,2013-02-15 14:33:00,
2013-02-15 04:38:00,65.0,57.2,30.04,NNW,345,16.0,40.0,76,0.00,,,0.00,Weather View 32 v70,2013-02-15 14:38:00,
2013-02-15 04:43:00,65.1,57.3,30.03,NNW,334,19.0,40.0,76,0.00,,,0.00,Weather View 32 v70,2013-02-15 14:43:00,
2013-02-15 04:48:00,65.1,57.7,30.04,WNW,302,17.0,32.0,77,0.00,,,0.00,Weather View 32 v70,2013-02-15 14:48:00,
2013-02-15 04:53:00,65.0,57.6,30.03,North,4,23.0,30.0,77,0.00,,,0.00,Weather View 32 v70,2013-02-15 14:53:00,
2013-02-15 04:58:00,64.9,57.5,30.03,NE,47,15.0,30.0,77,0.00,,,0.00,Weather View 32 v70,2013-02-15 14:58:00,
2013-02-15 05:03:00,64.8,58.1,30.02,North,354,15.0,30.0,79,0.00,,,0.00,Weather View 32 v70,2013-02-15 15:03:00,
2013-02-15 05:08:00,64.8,58.5,30.04,North,355,19.0,30.0,80,0.00,,,0.00,Weather View 32 v70,2013-02-15 15:08:00,
2013-02-15 05:13:00,64.4,58.8,30.04,North,2,30.0,30.0,82,0.00,,,0.00,Weather View 32 v70,2013-02-15 15:13:00,
2013-02-15 05:18:00,64.2,58.6,30.03,North,360,21.0,31.0,82,0.00,,,0.00,Weather View 32 v70,2013-02-15 15:18:00,
2013-02-15 05:23:00,64.2,58.9,30.04,North,4,20.0,39.0,83,0.00,,,0.00,Weather View 32 v70,2013-02-15 15:23:00,
2013-02-15 05:28:00,64.5,58.2,30.03,NNE,18,19.0,39.0,80,0.00,,,0.00,Weather View 32 v70,2013-02-15 15:28:00,
2013-02-15 05:33:00,65.1,57.0,30.03,North,355,31.0,39.0,75,0.00,,,0.00,Weather View 32 v70,2013-02-15 15:33:00,
2013-02-15 05:38:00,65.4,56.5,30.05,NNW,341,22.0,39.0,73,0.00,,,0.00,Weather View 32 v70,2013-02-15 15:38:00,
2013-02-15 05:43:00,65.4,56.9,30.04,NNW,337,23.0,39.0,74,0.00,,,0.00,Weather View 32 v70,2013-02-15 15:43:00,
2013-02-15 05:48:00,65.5,56.6,30.04,North,4,20.0,39.0,73,0.00,,,0.00,Weather View 32 v70,2013-02-15 15:48:00,
2013-02-15 05:54:00,65.6,56.3,30.04,NNW,333,28.0,39.0,72,0.00,,,0.00,Weather View 32 v70,2013-02-15 15:54:00,
2013-02-15 05:59:00,65.8,56.1,30.04,NNW,335,23.0,39.0,71,0.00,,,0.00,Weather View 32 v70,2013-02-15 15:59:00,
2013-02-15 06:04:00,65.8,56.5,30.05,North,355,27.0,39.0,72,0.00,,,0.00,Weather View 32 v70,2013-02-15 16:04:00,
2013-02-15 06:09:00,65.8,56.5,30.04,North,359,22.0,39.0,72,0.00,,,0.00,Weather View 32 v70,2013-02-15 16:09:00,
2013-02-15 06:14:00,66.1,56.4,30.05,NNW,340,17.0,39.0,71,0.00,,,0.00,Weather View 32 v70,2013-02-15 16:14:00,
2013-02-15 06:19:00,66.0,56.7,30.05,NNW,341,31.0,39.0,72,0.00,,,0.00,Weather View 32 v70,2013-02-15 16:19:00,
2013-02-15 06:24:00,65.9,57.0,30.05,North,354,22.0,38.0,73,0.00,,,0.00,Weather View 32 v70,2013-02-15 16:24:00,
2013-02-15 06:29:00,65.8,57.3,30.06,NW,308,18.0,38.0,74,0.00,,,0.00,Weather View 32 v70,2013-02-15 16:29:00,
2013-02-15 06:34:00,65.5,57.7,30.06,WNW,285,7.0,37.0,76,0.00,,,0.00,Weather View 32 v70,2013-02-15 16:34:00,
2013-02-15 06:39:00,65.4,58.0,30.05,WNW,303,14.0,37.0,77,0.00,,,0.00,Weather View 32 v70,2013-02-15 16:39:00,
2013-02-15 06:44:00,65.5,58.1,30.06,NNW,331,30.0,37.0,77,0.00,,,0.00,Weather View 32 v70,2013-02-15 16:44:00,
2013-02-15 06:49:00,65.6,58.2,30.06,NW,318,23.0,37.0,77,0.00,,,0.00,Weather View 32 v70,2013-02-15 16:49:00,
2013-02-15 06:54:00,65.6,58.5,30.06,North,355,21.0,37.0,78,0.00,,,0.00,Weather View 32 v70,2013-02-15 16:54:00,
2013-02-15 06:59:00,65.6,58.5,30.07,NNW,334,24.0,37.0,78,0.00,,,0.00,Weather View 32 v70,2013-02-15 16:59:00,
2013-02-15 07:04:00,65.6,58.5,30.06,NNW,336,17.0,35.0,78,0.00,,,0.00,Weather View 32 v70,2013-02-15 17:04:00,
2013-02-15 07:09:00,65.6,58.5,30.07,NNW,330,19.0,35.0,78,0.00,,,0.00,Weather View 32 v70,2013-02-15 17:09:00,
2013-02-15 07:14:00,65.6,58.9,30.06,North,353,21.0,37.0,79,0.00,,,0.00,Weather View 32 v70,2013-02-15 17:14:00,
2013-02-15 07:19:00,65.8,59.1,30.08,North,353,15.0,37.0,79,0.00,,,0.00,Weather View 32 v70,2013-02-15 17:19:00,
2013-02-15 07:24:00,65.9,59.2,30.07,NNW,337,23.0,37.0,79,0.00,,,0.00,Weather View 32 v70,2013-02-15 17:24:00,
2013-02-15 07:29:00,66.1,59.4,30.08,North,352,16.0,37.0,79,0.00,,,0.00,Weather View 32 v70,2013-02-15 17:29:00,
2013-02-15 07:34:00,66.2,59.1,30.08,NNW,335,18.0,37.0,78,0.00,,,0.00,Weather View 32 v70,2013-02-15 17:34:00,
2013-02-15 07:39:00,66.4,59.3,30.09,NNW,327,13.0,37.0,78,0.00,,,0.00,Weather View 32 v70,2013-02-15 17:39:00,
2013-02-15 07:44:00,66.6,59.5,30.09,North,8,14.0,37.0,78,0.00,,,0.00,Weather View 32 v70,2013-02-15 17:44:00,
2013-02-15 07:49:00,66.7,58.9,30.09,NNW,346,14.0,37.0,76,0.00,,,0.00,Weather View 32 v70,2013-02-15 17:49:00,
2013-02-15 07:54:00,66.8,58.6,30.08,North,2,20.0,37.0,75,0.00,,,0.00,Weather View 32 v70,2013-02-15 17:54:00,
2013-02-15 07:59:00,66.9,59.1,30.08,North,350,13.0,37.0,76,0.00,,,0.00,Weather View 32 v70,2013-02-15 17:59:00,
2013-02-15 08:04:00,67.1,58.9,30.08,North,358,21.0,37.0,75,0.00,,,0.00,Weather View 32 v70,2013-02-15 18:04:00,
2013-02-15 08:09:00,67.0,58.4,30.08,NNE,18,15.0,37.0,74,0.00,,,0.00,Weather View 32 v70,2013-02-15 18:09:00,
2013-02-15 08:14:00,67.0,58.4,30.08,North,358,21.0,31.0,74,0.00,,,0.00,Weather View 32 v70,2013-02-15 18:14:00,
2013-02-15 08:19:00,67.1,58.5,30.09,NNW,339,16.0,31.0,74,0.00,,,0.00,Weather View 32 v70,2013-02-15 18:19:00,
2013-02-15 08:24:00,67.3,58.3,30.10,North,359,11.0,38.0,73,0.00,,,0.00,Weather View 32 v70,2013-02-15 18:24:00,
2013-02-15 08:29:00,67.4,58.4,30.09,North,351,14.0,38.0,73,0.00,,,0.00,Weather View 32 v70,2013-02-15 18:29:00,
2013-02-15 08:34:00,67.4,58.4,30.08,North,353,27.0,38.0,73,0.00,,,0.00,Weather View 32 v70,2013-02-15 18:34:00,
2013-02-15 08:39:00,67.6,58.2,30.10,North,7,15.0,38.0,72,0.00,,,0.00,Weather View 32 v70,2013-02-15 18:39:00,
2013-02-15 08:44:00,67.6,58.2,30.09,NNW,338,20.0,38.0,72,0.00,,,0.00,Weather View 32 v70,2013-02-15 18:44:00,
2013-02-15 08:50:00,67.8,58.4,30.09,NNE,12,25.0,38.0,72,0.00,,,0.00,Weather View 32 v70,2013-02-15 18:50:00,
2013-02-15 08:55:00,67.9,58.1,30.08,North,349,28.0,38.0,71,0.00,,,0.00,Weather View 32 v70,2013-02-15 18:55:00,
2013-02-15 09:00:00,68.1,57.9,30.07,NNE,16,21.0,38.0,70,0.00,,,0.00,Weather View 32 v70,2013-02-15 19:00:00,
2013-02-15 09:02:00,68.1,57.5,30.07,NNE,24,24.0,38.0,69,0.00,,,0.00,Weather View 32 v70,2013-02-15 19:02:00,
2013-02-15 09:07:00,68.3,57.3,30.09,NNE,17,25.0,38.0,68,0.00,,,0.00,Weather View 32 v70,2013-02-15 19:07:00,
2013-02-15 09:13:00,68.0,57.0,30.09,NNW,345,16.0,38.0,68,0.00,,,0.00,Weather View 32 v70,2013-02-15 19:13:00,
2013-02-15 09:18:00,68.4,57.8,30.08,NNE,17,22.0,38.0,69,0.00,,,0.00,Weather View 32 v70,2013-02-15 19:18:00,
2013-02-15 09:23:00,68.7,57.3,30.07,North,5,21.0,38.0,67,0.00,,,0.00,Weather View 32 v70,2013-02-15 19:23:00,
2013-02-15 09:29:00,68.9,56.6,30.08,North,350,27.0,33.0,65,0.00,,,0.00,Weather View 32 v70,2013-02-15 19:29:00,
2013-02-15 09:34:00,69.0,57.6,30.09,NNE,26,26.0,33.0,67,0.00,,,0.00,Weather View 32 v70,2013-02-15 19:34:00,
2013-02-15 09:39:00,68.5,57.9,30.09,North,357,24.0,33.0,69,0.00,,,0.00,Weather View 32 v70,2013-02-15 19:39:00,
2013-02-15 09:45:00,68.4,57.8,30.09,North,9,17.0,36.0,69,0.00,,,0.00,Weather View 32 v70,2013-02-15 19:45:00,
2013-02-15 09:50:00,68.9,58.3,30.07,NNW,342,26.0,36.0,69,0.00,,,0.00,Weather View 32 v70,2013-02-15 19:50:00,
2013-02-15 09:55:00,69.0,58.8,30.10,North,356,17.0,36.0,70,0.00,,,0.00,Weather View 32 v70,2013-02-15 19:55:00,
2013-02-15 10:01:00,68.8,59.0,30.09,NW,310,16.0,36.0,71,0.00,,,0.00,Weather View 32 v70,2013-02-15 20:01:00,
2013-02-15 10:06:00,69.0,59.6,30.09,NW,322,12.0,36.0,72,0.00,,,0.00,Weather View 32 v70,2013-02-15 20:06:00,
2013-02-15 10:10:00,69.4,60.0,30.07,NNE,21,21.0,36.0,72,0.00,,,0.00,Weather View 32 v70,2013-02-15 20:10:00,
2013-02-15 10:13:00,68.9,60.2,30.08,NNW,343,24.0,36.0,74,0.00,,,0.00,Weather View 32 v70,2013-02-15 20:13:00,
2013-02-15 10:15:00,69.1,60.1,30.08,North,4,21.0,36.0,73,0.00,,,0.00,Weather View 32 v70,2013-02-15 20:15:00,
2013-02-15 10:18:00,69.3,60.2,30.07,North,1,23.0,36.0,73,0.00,,,0.00,Weather View 32 v70,2013-02-15 20:18:00,
2013-02-15 10:23:00,69.0,60.7,30.07,NNE,27,22.0,36.0,75,0.00,,,0.00,Weather View 32 v70,2013-02-15 20:23:00,
2013-02-15 10:25:00,69.1,61.2,30.08,North,355,27.0,36.0,76,0.00,,,0.00,Weather View 32 v70,2013-02-15 20:25:00,
2013-02-15 10:29:00,69.1,61.2,30.07,North,2,24.0,36.0,76,0.00,,,0.00,Weather View 32 v70,2013-02-15 20:29:00,
2013-02-15 10:30:00,69.1,61.2,30.08,North,2,24.0,36.0,76,0.00,,,0.00,Weather View 32 v70,2013-02-15 20:30:00,
2013-02-15 10:34:00,68.9,61.4,30.07,NNW,333,27.0,36.0,77,0.00,,,0.00,Weather View 32 v70,2013-02-15 20:34:00,
2013-02-15 10:40:00,68.4,61.6,30.08,North,356,26.0,36.0,79,0.00,,,0.00,Weather View 32 v70,2013-02-15 20:40:00,
2013-02-15 10:45:00,68.8,62.0,30.08,NNE,19,22.0,35.0,79,0.00,,,0.00,Weather View 32 v70,2013-02-15 20:45:00,
2013-02-15 10:50:00,69.3,62.5,30.07,North,353,28.0,35.0,79,0.00,,,0.00,Weather View 32 v70,2013-02-15 20:50:00,
2013-02-15 10:55:00,69.3,62.5,30.06,NNW,345,29.0,36.0,79,0.00,,,0.00,Weather View 32 v70,2013-02-15 20:55:00,
2013-02-15 11:00:00,69.0,62.6,30.08,NNE,28,25.0,38.0,80,0.00,,,0.00,Weather View 32 v70,2013-02-15 21:00:00,
2013-02-15 11:05:00,69.0,62.6,30.07,North,2,19.0,39.0,80,0.00,,,0.00,Weather View 32 v70,2013-02-15 21:05:00,
2013-02-15 11:15:00,68.6,62.5,30.06,NNE,31,19.0,39.0,81,0.00,,,0.00,Weather View 32 v70,2013-02-15 21:15:00,
2013-02-15 11:20:00,68.8,62.7,30.06,NW,324,21.0,39.0,81,0.00,,,0.00,Weather View 32 v70,2013-02-15 21:20:00,
2013-02-15 11:25:00,68.6,62.9,30.04,North,10,31.0,39.0,82,0.00,,,0.00,Weather View 32 v70,2013-02-15 21:25:00,
2013-02-15 11:30:00,68.4,63.0,30.02,NNE,22,38.0,40.0,83,0.00,,,0.00,Weather View 32 v70,2013-02-15 21:30:00,
2013-02-15 11:36:00,68.2,62.8,30.04,North,11,31.0,45.0,83,0.00,,,0.00,Weather View 32 v70,2013-02-15 21:36:00,
2013-02-15 11:42:00,68.3,62.9,30.06,NNE,19,26.0,45.0,83,0.00,,,0.00,Weather View 32 v70,2013-02-15 21:42:00,
2013-02-15 11:47:00,68.3,62.9,30.04,North,5,23.0,45.0,83,0.00,,,0.00,Weather View 32 v70,2013-02-15 21:47:00,
2013-02-15 11:53:00,68.7,63.0,30.02,North,349,29.0,45.0,82,0.00,,,0.00,Weather View 32 v70,2013-02-15 21:53:00,
2013-02-15 11:58:00,69.0,63.3,30.06,NNW,345,25.0,45.0,82,0.00,,,0.00,Weather View 32 v70,2013-02-15 21:58:00,
2013-02-15 12:05:00,69.2,63.1,30.04,NNW,335,28.0,45.0,81,0.00,,,0.00,Weather View 32 v70,2013-02-15 22:05:00,
2013-02-15 12:06:00,69.0,63.3,30.03,NNE,12,31.0,45.0,82,0.00,,,0.00,Weather View 32 v70,2013-02-15 22:06:00,
2013-02-15 12:10:00,68.7,63.7,30.02,North,357,27.0,45.0,84,0.00,,,0.00,Weather View 32 v70,2013-02-15 22:10:00,
2013-02-15 12:13:00,69.1,63.7,30.05,North,8,18.0,45.0,83,0.00,,,0.00,Weather View 32 v70,2013-02-15 22:13:00,
2013-02-15 12:15:00,69.2,63.8,30.03,NNW,342,30.0,45.0,83,0.00,,,0.00,Weather View 32 v70,2013-02-15 22:15:00,
2013-02-15 12:19:00,69.4,64.0,30.05,NNW,345,28.0,45.0,83,0.00,,,0.00,Weather View 32 v70,2013-02-15 22:19:00,
2013-02-15 12:24:00,69.4,64.0,30.02,NNE,22,18.0,45.0,83,0.00,,,0.00,Weather View 32 v70,2013-02-15 22:24:00,
2013-02-15 12:29:00,69.5,64.1,30.03,North,359,25.0,45.0,83,0.00,,,0.00,Weather View 32 v70,2013-02-15 22:29:00,
2013-02-15 12:30:00,69.5,64.1,30.03,NNE,16,26.0,45.0,83,0.00,,,0.00,Weather View 32 v70,2013-02-15 22:30:00,
2013-02-15 12:35:00,69.7,64.3,30.03,NNE,13,26.0,44.0,83,0.00,,,0.00,Weather View 32 v70,2013-02-15 22:35:00,
2013-02-15 12:40:00,69.1,63.7,30.01,NNW,348,27.0,44.0,83,0.00,,,0.00,Weather View 32 v70,2013-02-15 22:40:00,
2013-02-15 12:46:00,69.5,63.4,30.01,North,355,30.0,44.0,81,0.00,,,0.00,Weather View 32 v70,2013-02-15 22:46:00,
2013-02-15 12:50:00,69.4,63.6,30.03,East,80,20.0,44.0,82,0.00,,,0.00,Weather View 32 v70,2013-02-15 22:50:00,
2013-02-15 12:51:00,69.3,63.5,30.03,NNE,17,19.0,44.0,82,0.00,,,0.00,Weather View 32 v70,2013-02-15 22:51:00,
2013-02-15 12:55:00,69.2,63.8,30.02,NNE,13,26.0,44.0,83,0.00,,,0.00,Weather View 32 v70,2013-02-15 22:55:00,
2013-02-15 12:56:00,69.2,63.8,30.02,NNW,334,36.0,44.0,83,0.00,,,0.00,Weather View 32 v70,2013-02-15 22:56:00,
2013-02-15 13:01:00,69.0,64.3,30.02,North,355,24.0,45.0,85,0.00,,,0.00,Weather View 32 v70,2013-02-15 23:01:00,
2013-02-15 13:06:00,69.4,64.3,30.01,NNE,15,36.0,45.0,84,0.00,,,0.00,Weather View 32 v70,2013-02-15 23:06:00,
2013-02-15 13:10:00,69.6,64.2,30.02,North,3,34.0,45.0,83,0.00,,,0.00,Weather View 32 v70,2013-02-15 23:10:00,
2013-02-15 13:11:00,69.7,64.3,30.02,North,350,34.0,45.0,83,0.00,,,0.00,Weather View 32 v70,2013-02-15 23:11:00,
2013-02-15 13:15:00,70.1,64.3,30.01,North,359,25.0,45.0,82,0.00,,,0.00,Weather View 32 v70,2013-02-15 23:15:00,
2013-02-15 13:16:00,70.1,64.0,30.01,North,355,38.0,45.0,81,0.00,,,0.00,Weather View 32 v70,2013-02-15 23:16:00,
2013-02-15 13:20:00,69.8,63.7,30.00,NNW,334,32.0,45.0,81,0.00,,,0.00,Weather View 32 v70,2013-02-15 23:20:00,
2013-02-15 13:22:00,70.0,63.9,30.02,North,6,26.0,45.0,81,0.00,,,0.00,Weather View 32 v70,2013-02-15 23:22:00,
2013-02-15 13:25:00,69.9,63.4,30.02,North,352,34.0,45.0,80,0.00,,,0.00,Weather View 32 v70,2013-02-15 23:25:00,
2013-02-15 13:29:00,70.1,63.6,30.00,NNE,18,36.0,45.0,80,0.00,,,0.00,Weather View 32 v70,2013-02-15 23:29:00,
2013-02-15 13:35:00,70.1,63.6,30.02,North,2,21.0,45.0,80,0.00,,,0.00,Weather View 32 v70,2013-02-15 23:35:00,
2013-02-15 13:40:00,69.7,63.9,30.01,North,4,31.0,45.0,82,0.00,,,0.00,Weather View 32 v70,2013-02-15 23:40:00,
2013-02-15 13:45:00,69.8,64.0,30.01,NNW,331,35.0,45.0,82,0.00,,,0.00,Weather View 32 v70,2013-02-15 23:45:00,
2013-02-15 13:47:00,69.8,64.0,30.01,NNW,339,22.0,45.0,82,0.00,,,0.00,Weather View 32 v70,2013-02-15 23:47:00,
2013-02-15 13:50:00,69.8,64.0,29.99,North,1,32.0,45.0,82,0.00,,,0.00,Weather View 32 v70,2013-02-15 23:50:00,
2013-02-15 13:57:00,69.9,63.8,30.00,North,6,26.0,45.0,81,0.00,,,0.00,Weather View 32 v70,2013-02-15 23:57:00,
2013-02-15 14:03:00,70.2,63.0,29.99,North,1,35.0,44.0,78,0.00,,,0.00,Weather View 32 v70,2013-02-16 00:03:00,
2013-02-15 14:09:00,69.9,63.4,29.99,NNE,17,15.0,44.0,80,0.00,,,0.00,Weather View 32 v70,2013-02-16 00:09:00,
2013-02-15 14:10:00,69.8,63.3,30.00,NNW,346,21.0,44.0,80,0.00,,,0.00,Weather View 32 v70,2013-02-16 00:10:00,
2013-02-15 14:15:00,70.0,63.2,30.01,North,8,21.0,44.0,79,0.00,,,0.00,Weather View 32 v70,2013-02-16 00:15:00,
2013-02-15 14:22:00,70.1,63.3,30.01,North,9,14.0,44.0,79,0.00,,,0.00,Weather View 32 v70,2013-02-16 00:22:00,
2013-02-15 14:27:00,70.1,62.9,30.00,NNW,343,24.0,44.0,78,0.00,,,0.00,Weather View 32 v70,2013-02-16 00:27:00,
2013-02-15 14:32:00,70.2,63.0,29.98,NNW,332,31.0,44.0,78,0.00,,,0.00,Weather View 32 v70,2013-02-16 00:32:00,
2013-02-15 14:37:00,70.7,62.7,30.00,NNW,340,25.0,44.0,76,0.00,,,0.00,Weather View 32 v70,2013-02-16 00:37:00,
2013-02-15 14:43:00,71.0,62.6,30.00,North,359,19.0,44.0,75,0.00,,,0.00,Weather View 32 v70,2013-02-16 00:43:00,
2013-02-15 14:49:00,71.0,62.6,30.00,North,1,18.0,44.0,75,0.00,,,0.00,Weather View 32 v70,2013-02-16 00:49:00,
2013-02-15 14:54:00,71.3,62.9,30.01,NNW,343,23.0,44.0,75,0.00,,,0.00,Weather View 32 v70,2013-02-16 00:54:00,
2013-02-15 14:59:00,71.3,62.9,30.00,WNW,294,16.0,44.0,75,0.00,,,0.00,Weather View 32 v70,2013-02-16 00:59:00,
2013-02-15 15:04:00,71.3,62.9,29.99,North,3,17.0,44.0,75,0.00,,,0.00,Weather View 32 v70,2013-02-16 01:04:00,
2013-02-15 15:05:00,71.3,62.9,30.00,West,280,17.0,41.0,75,0.00,,,0.00,Weather View 32 v70,2013-02-16 01:05:00,
2013-02-15 15:09:00,71.3,62.9,30.00,North,356,17.0,41.0,75,0.00,,,0.00,Weather View 32 v70,2013-02-16 01:09:00,
2013-02-15 15:10:00,71.4,62.7,30.01,NNW,333,8.0,41.0,74,0.00,,,0.00,Weather View 32 v70,2013-02-16 01:10:00,
2013-02-15 15:14:00,71.4,62.7,30.01,NNE,14,10.0,41.0,74,0.00,,,0.00,Weather View 32 v70,2013-02-16 01:14:00,
2013-02-15 15:27:00,71.0,62.3,30.00,North,351,16.0,41.0,74,0.00,,,0.00,Weather View 32 v70,2013-02-16 01:27:00,
2013-02-15 15:30:00,71.0,62.6,30.01,NW,325,26.0,41.0,75,0.00,,,0.00,Weather View 32 v70,2013-02-16 01:30:00,
2013-02-15 15:34:00,71.0,62.3,30.01,NNW,327,23.0,41.0,74,0.00,,,0.00,Weather View 32 v70,2013-02-16 01:34:00,
2013-02-15 15:35:00,70.9,62.6,30.01,NW,312,12.0,41.0,75,0.00,,,0.00,Weather View 32 v70,2013-02-16 01:35:00,
2013-02-15 15:40:00,70.6,62.6,30.01,NNW,334,22.0,41.0,76,0.00,,,0.00,Weather View 32 v70,2013-02-16 01:40:00,
2013-02-15 15:41:00,70.6,62.6,30.01,NNW,328,21.0,41.0,76,0.00,,,0.00,Weather View 32 v70,2013-02-16 01:41:00,
2013-02-15 15:45:00,70.2,63.4,30.01,NNE,26,24.0,41.0,79,0.00,,,0.00,Weather View 32 v70,2013-02-16 01:45:00,
2013-02-15 15:50:00,69.9,62.3,30.01,NNW,347,29.0,41.0,77,0.00,,,0.00,Weather View 32 v70,2013-02-16 01:50:00,
2013-02-15 15:56:00,69.9,62.0,30.01,NW,322,34.0,40.0,76,0.00,,,0.00,Weather View 32 v70,2013-02-16 01:56:00,
2013-02-15 16:01:00,69.9,62.3,30.00,NNW,337,25.0,40.0,77,0.00,,,0.00,Weather View 32 v70,2013-02-16 02:01:00,
2013-02-15 16:05:00,69.9,62.2,29.99,NW,326,25.0,40.0,77,0.00,,,0.00,Weather View 32 v70,2013-02-16 02:05:00,
2013-02-15 16:09:00,69.8,62.2,30.01,NNW,332,18.0,40.0,77,0.00,,,0.00,Weather View 32 v70,2013-02-16 02:09:00,
2013-02-15 16:14:00,70.0,62.1,30.01,NW,316,19.0,40.0,76,0.00,,,0.00,Weather View 32 v70,2013-02-16 02:14:00,
2013-02-15 16:20:00,69.8,61.9,30.00,North,5,23.0,40.0,76,0.00,,,0.00,Weather View 32 v70,2013-02-16 02:20:00,
2013-02-15 16:26:00,69.4,62.2,30.02,NNW,348,30.0,40.0,78,0.00,,,0.00,Weather View 32 v70,2013-02-16 02:26:00,
2013-02-15 16:30:00,69.2,62.0,30.01,North,355,19.0,40.0,78,0.00,,,0.00,Weather View 32 v70,2013-02-16 02:30:00,
2013-02-15 16:31:00,69.2,62.0,30.00,NNW,341,22.0,40.0,78,0.00,,,0.00,Weather View 32 v70,2013-02-16 02:31:00,
2013-02-15 16:36:00,69.3,62.1,30.02,NNW,346,35.0,40.0,78,0.00,,,0.00,Weather View 32 v70,2013-02-16 02:36:00,
2013-02-15 16:42:00,69.3,61.8,29.99,NNW,332,28.0,40.0,77,0.00,,,0.00,Weather View 32 v70,2013-02-16 02:42:00,
2013-02-15 16:47:00,69.5,61.9,30.01,NNW,330,21.0,42.0,77,0.00,,,0.00,Weather View 32 v70,2013-02-16 02:47:00,
2013-02-15 16:52:00,69.7,61.8,30.02,NNW,332,18.0,42.0,76,0.00,,,0.00,Weather View 32 v70,2013-02-16 02:52:00,
2013-02-15 16:57:00,69.9,62.0,30.02,NNW,332,23.0,42.0,76,0.00,,,0.00,Weather View 32 v70,2013-02-16 02:57:00,
2013-02-15 17:02:00,69.8,61.5,30.02,NNW,331,26.0,42.0,75,0.00,,,0.00,Weather View 32 v70,2013-02-16 03:02:00,
2013-02-15 17:07:00,69.8,61.5,30.01,WNW,292,13.0,42.0,75,0.00,,,0.00,Weather View 32 v70,2013-02-16 03:07:00,
2013-02-15 17:12:00,69.8,61.5,30.03,WNW,299,28.0,42.0,75,0.00,,,0.00,Weather View 32 v70,2013-02-16 03:12:00,
2013-02-15 17:17:00,69.9,60.8,30.03,NNW,332,27.0,42.0,73,0.00,,,0.00,Weather View 32 v70,2013-02-16 03:17:00,
2013-02-15 17:22:00,70.0,60.9,30.02,NW,322,18.0,42.0,73,0.00,,,0.00,Weather View 32 v70,2013-02-16 03:22:00,
2013-02-15 17:27:00,70.0,60.5,30.04,NW,322,23.0,42.0,72,0.00,,,0.00,Weather View 32 v70,2013-02-16 03:27:00,
2013-02-15 17:32:00,69.9,60.8,30.04,NW,326,20.0,42.0,73,0.00,,,0.00,Weather View 32 v70,2013-02-16 03:32:00,
2013-02-15 17:37:00,69.8,60.7,30.02,NW,324,18.0,42.0,73,0.00,,,0.00,Weather View 32 v70,2013-02-16 03:37:00,
2013-02-15 17:42:00,69.8,60.3,30.04,NW,326,17.0,42.0,72,0.00,,,0.00,Weather View 32 v70,2013-02-16 03:42:00,
2013-02-15 17:47:00,69.7,60.2,30.04,NE,34,8.0,40.0,72,0.00,,,0.00,Weather View 32 v70,2013-02-16 03:47:00,
2013-02-15 17:52:00,69.7,60.2,30.03,NNW,348,16.0,40.0,72,0.00,,,0.00,Weather View 32 v70,2013-02-16 03:52:00,
2013-02-15 17:57:00,69.7,59.8,30.03,NW,320,15.0,40.0,71,0.00,,,0.00,Weather View 32 v70,2013-02-16 03:57:00,
2013-02-15 18:02:00,69.8,59.9,30.03,NNE,14,17.0,40.0,71,0.00,,,0.00,Weather View 32 v70,2013-02-16 04:02:00,
2013-02-15 18:07:00,69.8,59.9,30.04,NNW,332,18.0,40.0,71,0.00,,,0.00,Weather View 32 v70,2013-02-16 04:07:00,
2013-02-15 18:12:00,69.9,59.6,30.03,NW,324,26.0,40.0,70,0.00,,,0.00,Weather View 32 v70,2013-02-16 04:12:00,
2013-02-15 18:17:00,69.9,59.6,30.04,NNE,16,17.0,40.0,70,0.00,,,0.00,Weather View 32 v70,2013-02-16 04:17:00,
2013-02-15 18:22:00,69.6,59.7,30.04,North,5,27.0,40.0,71,0.00,,,0.00,Weather View 32 v70,2013-02-16 04:22:00,
2013-02-15 18:27:00,69.4,59.6,30.05,NW,320,22.0,40.0,71,0.00,,,0.00,Weather View 32 v70,2013-02-16 04:27:00,
2013-02-15 18:32:00,69.3,59.5,30.04,NNW,348,15.0,40.0,71,0.00,,,0.00,Weather View 32 v70,2013-02-16 04:32:00,
2013-02-15 18:37:00,69.2,59.8,30.05,WNW,299,14.0,40.0,72,0.00,,,0.00,Weather View 32 v70,2013-02-16 04:37:00,
2013-02-15 18:42:00,69.3,59.9,30.04,North,360,27.0,40.0,72,0.00,,,0.00,Weather View 32 v70,2013-02-16 04:42:00,
2013-02-15 18:47:00,69.3,59.5,30.04,North,3,19.0,40.0,71,0.00,,,0.00,Weather View 32 v70,2013-02-16 04:47:00,
2013-02-15 18:52:00,69.1,59.7,30.03,NNW,341,31.0,40.0,72,0.00,,,0.00,Weather View 32 v70,2013-02-16 04:52:00,
2013-02-15 18:57:00,69.0,60.0,30.06,North,355,15.0,40.0,73,0.00,,,0.00,Weather View 32 v70,2013-02-16 04:57:00,
2013-02-15 19:00:00,68.9,59.9,30.06,NNW,340,31.0,40.0,73,0.00,,,0.00,Weather View 32 v70,2013-02-16 05:00:00,
2013-02-15 19:05:00,68.8,60.1,30.06,North,356,22.0,39.0,74,0.00,,,0.00,Weather View 32 v70,2013-02-16 05:05:00,
2013-02-15 19:10:00,68.7,60.4,30.07,NNW,334,8.0,39.0,75,0.00,,,0.00,Weather View 32 v70,2013-02-16 05:10:00,
2013-02-15 19:15:00,68.6,60.7,30.06,NW,322,23.0,39.0,76,0.00,,,0.00,Weather View 32 v70,2013-02-16 05:15:00,
2013-02-15 19:20:00,68.5,60.6,30.08,NNW,339,10.0,39.0,76,0.00,,,0.00,Weather View 32 v70,2013-02-16 05:20:00,
2013-02-15 19:23:00,68.5,61.0,30.08,NW,314,9.0,39.0,77,0.00,,,0.00,Weather View 32 v70,2013-02-16 05:23:00,
2013-02-15 19:28:00,68.4,60.5,30.08,NNE,30,10.0,39.0,76,0.00,,,0.00,Weather View 32 v70,2013-02-16 05:28:00,
2013-02-15 19:33:00,68.4,60.5,30.07,NW,322,26.0,39.0,76,0.00,,,0.00,Weather View 32 v70,2013-02-16 05:33:00,
2013-02-15 19:38:00,68.5,60.6,30.08,NW,322,17.0,39.0,76,0.00,,,0.00,Weather View 32 v70,2013-02-16 05:38:00,
2013-02-15 19:43:00,68.5,60.6,30.08,NW,317,25.0,39.0,76,0.00,,,0.00,Weather View 32 v70,2013-02-16 05:43:00,
2013-02-15 19:48:00,68.4,60.5,30.08,NNW,332,21.0,38.0,76,0.00,,,0.00,Weather View 32 v70,2013-02-16 05:48:00,
2013-02-15 19:53:00,68.4,60.9,30.08,WNW,299,17.0,38.0,77,0.00,,,0.00,Weather View 32 v70,2013-02-16 05:53:00,
2013-02-15 19:58:00,68.3,61.2,30.08,NNW,343,27.0,35.0,78,0.00,,,0.00,Weather View 32 v70,2013-02-16 05:58:00,
2013-02-15 20:03:00,68.3,60.8,30.09,NW,313,12.0,35.0,77,0.00,,,0.00,Weather View 32 v70,2013-02-16 06:03:00,
2013-02-15 20:08:00,68.2,60.7,30.08,NNW,328,28.0,35.0,77,0.00,,,0.00,Weather View 32 v70,2013-02-16 06:08:00,
2013-02-15 20:13:00,68.2,60.7,30.10,NNW,335,8.0,35.0,77,0.00,,,0.00,Weather View 32 v70,2013-02-16 06:13:00,
2013-02-15 20:18:00,68.0,60.9,30.10,NNE,15,19.0,35.0,78,0.00,,,0.00,Weather View 32 v70,2013-02-16 06:18:00,
2013-02-15 20:23:00,68.0,60.9,30.08,NNW,344,18.0,35.0,78,0.00,,,0.00,Weather View 32 v70,2013-02-16 06:23:00,
2013-02-15 20:28:00,68.0,61.2,30.09,North,353,14.0,35.0,79,0.00,,,0.00,Weather View 32 v70,2013-02-16 06:28:00,
2013-02-15 20:33:00,68.1,61.3,30.10,North,5,21.0,35.0,79,0.00,,,0.00,Weather View 32 v70,2013-02-16 06:33:00,
2013-02-15 20:38:00,68.3,61.2,30.08,NNW,345,18.0,39.0,78,0.00,,,0.00,Weather View 32 v70,2013-02-16 06:38:00,
2013-02-15 20:43:00,68.3,61.2,30.10,NW,315,22.0,39.0,78,0.00,,,0.00,Weather View 32 v70,2013-02-16 06:43:00,
2013-02-15 20:48:00,68.4,61.6,30.08,NW,322,30.0,42.0,79,0.00,,,0.00,Weather View 32 v70,2013-02-16 06:48:00,
2013-02-15 20:53:00,68.1,62.0,30.08,North,354,25.0,42.0,81,0.00,,,0.00,Weather View 32 v70,2013-02-16 06:53:00,
2013-02-15 20:58:00,68.0,62.3,30.09,North,350,35.0,42.0,82,0.00,,,0.00,Weather View 32 v70,2013-02-16 06:58:00,
2013-02-15 21:03:00,67.8,62.1,30.09,North,6,26.0,42.0,82,0.00,,,0.00,Weather View 32 v70,2013-02-16 07:03:00,
2013-02-15 21:08:00,67.7,61.6,30.09,NNW,339,29.0,42.0,81,0.00,,,0.00,Weather View 32 v70,2013-02-16 07:08:00,
2013-02-15 21:13:00,67.8,61.4,30.10,North,355,31.0,42.0,80,0.00,,,0.00,Weather View 32 v70,2013-02-16 07:13:00,
2013-02-15 21:18:00,67.9,61.5,30.06,NNW,338,34.0,42.0,80,0.00,,,0.00,Weather View 32 v70,2013-02-16 07:18:00,
2013-02-15 21:23:00,67.9,61.1,30.10,NW,323,32.0,42.0,79,0.00,,,0.00,Weather View 32 v70,2013-02-16 07:23:00,
2013-02-15 21:28:00,67.9,61.1,30.10,North,355,21.0,42.0,79,0.00,,,0.00,Weather View 32 v70,2013-02-16 07:28:00,
2013-02-15 21:33:00,68.2,60.7,30.09,North,360,28.0,42.0,77,0.00,,,0.00,Weather View 32 v70,2013-02-16 07:33:00,
2013-02-15 21:38:00,68.3,60.8,30.11,North,359,32.0,42.0,77,0.00,,,0.00,Weather View 32 v70,2013-02-16 07:38:00,
2013-02-15 21:43:00,68.1,61.3,30.10,North,8,22.0,42.0,79,0.00,,,0.00,Weather View 32 v70,2013-02-16 07:43:00,
2013-02-15 21:48:00,68.0,61.9,30.11,NNW,341,15.0,42.0,81,0.00,,,0.00,Weather View 32 v70,2013-02-16 07:48:00,
2013-02-15 21:53:00,67.6,62.2,30.09,NNW,328,29.0,42.0,83,0.00,,,0.00,Weather View 32 v70,2013-02-16 07:53:00,
2013-02-15 21:58:00,67.3,62.3,30.10,NNW,327,28.0,42.0,84,0.00,,,0.00,Weather View 32 v70,2013-02-16 07:58:00,
2013-02-15 22:03:00,67.1,62.1,30.12,NNE,12,28.0,42.0,84,0.00,,,0.00,Weather View 32 v70,2013-02-16 08:03:00,
2013-02-15 22:08:00,67.1,62.1,30.11,NNE,26,21.0,42.0,84,0.00,,,0.00,Weather View 32 v70,2013-02-16 08:08:00,
2013-02-15 22:13:00,67.3,62.3,30.11,North,354,23.0,42.0,84,0.00,,,0.00,Weather View 32 v70,2013-02-16 08:13:00,
2013-02-15 22:18:00,67.4,62.4,30.10,North,10,26.0,42.0,84,0.00,,,0.00,Weather View 32 v70,2013-02-16 08:18:00,
2013-02-15 22:23:00,67.4,62.0,30.11,North,353,35.0,41.0,83,0.00,,,0.00,Weather View 32 v70,2013-02-16 08:23:00,
2013-02-15 22:28:00,67.5,61.8,30.11,NNW,346,25.0,41.0,82,0.00,,,0.00,Weather View 32 v70,2013-02-16 08:28:00,
2013-02-15 22:33:00,67.7,61.6,30.10,NNW,336,24.0,41.0,81,0.00,,,0.00,Weather View 32 v70,2013-02-16 08:33:00,
2013-02-15 22:38:00,67.9,61.5,30.10,North,357,28.0,41.0,80,0.00,,,0.00,Weather View 32 v70,2013-02-16 08:38:00,
2013-02-15 22:43:00,67.9,61.5,30.09,NNE,15,24.0,41.0,80,0.00,,,0.00,Weather View 32 v70,2013-02-16 08:43:00,
2013-02-15 22:48:00,68.1,61.3,30.11,NNW,347,12.0,41.0,79,0.00,,,0.00,Weather View 32 v70,2013-02-16 08:48:00,
2013-02-15 22:53:00,68.0,61.6,30.08,NNE,29,14.0,41.0,80,0.00,,,0.00,Weather View 32 v70,2013-02-16 08:53:00,
2013-02-15 22:58:00,68.0,61.6,30.10,NNW,340,18.0,42.0,80,0.00,,,0.00,Weather View 32 v70,2013-02-16 08:58:00,
2013-02-15 23:03:00,68.1,61.3,30.10,NNW,341,24.0,42.0,79,0.00,,,0.00,Weather View 32 v70,2013-02-16 09:03:00,
2013-02-15 23:08:00,68.1,61.3,30.11,NW,323,31.0,44.0,79,0.00,,,0.00,Weather View 32 v70,2013-02-16 09:08:00,
2013-02-15 23:13:00,67.9,61.8,30.10,NW,320,28.0,48.0,81,0.00,,,0.00,Weather View 32 v70,2013-02-16 09:13:00,
2013-02-15 23:18:00,67.7,62.3,30.10,NNW,330,24.0,48.0,83,0.00,,,0.00,Weather View 32 v70,2013-02-16 09:18:00,
2013-02-15 23:23:00,67.6,62.2,30.09,NNW,328,24.0,48.0,83,0.00,,,0.00,Weather View 32 v70,2013-02-16 09:23:00,
2013-02-15 23:28:00,67.5,62.5,30.12,NNW,334,29.0,48.0,84,0.00,,,0.00,Weather View 32 v70,2013-02-16 09:28:00,
2013-02-15 23:33:00,67.5,62.5,30.11,NNW,342,31.0,48.0,84,0.00,,,0.00,Weather View 32 v70,2013-02-16 09:33:00,
2013-02-15 23:38:00,67.4,62.4,30.11,NNW,345,26.0,48.0,84,0.00,,,0.00,Weather View 32 v70,2013-02-16 09:38:00,
2013-02-15 23:43:00,67.2,62.5,30.11,North,354,26.0,48.0,85,0.00,,,0.00,Weather View 32 v70,2013-02-16 09:43:00,
2013-02-15 23:48:00,67.1,62.4,30.11,NNW,348,23.0,48.0,85,0.00,,,0.00,Weather View 32 v70,2013-02-16 09:48:00,
2013-02-15 23:53:00,67.1,62.4,30.10,North,4,18.0,48.0,85,0.00,,,0.00,Weather View 32 v70,2013-02-16 09:53:00,
2013-02-15 23:58:00,67.1,62.4,30.11,NNE,12,20.0,48.0,85,0.00,,,0.00,Weather View 32 v70,2013-02-16 09:58:00,